Location: Unspecified
(0.0000°N, 0.0000°E)
Time: 14:53:49
(UTC+00:00)

Kyokko - Pass Details

Date: 09 June 2023
Orbit: 634 x 3947 km, 65.4° (Epoch: 25 September)

Event Time Altitude Azimuth Distance (km) Brightness Sun altitude
Rises 20:07:01 0° 252° (WSW) 4,407 11.0 -29.1°
Reaches altitude 10° 20:11:11 10° 274° (W) 3,946 10.9 -30.1°
Maximum altitude 20:16:43 16° 306° (NW) 4,158 11.0 -31.3°
Drops below altitude 10° 20:24:00 10° 338° (NNW) 5,405 11.4 -32.9°
Sets 20:32:00 0° 356° (N) 7,144 11.8 -34.7°
